[[{"header":{"parameterUnit":"m.s-1","parameterCategory":1,"la1":30.2991,"la2":30.254,"lo1":-89.0895,"lo2":-89.0444,"dy":0.0017,"dx":0.0017,"nx":28,"ny":28,"refTime":"2023-09-30T09:00:00:Z","depth":0,"parameterNumber":2,"parameterNumberName":"U-component_of_WINDS"},"data":[0,0,0,0,0,0,0,0,0,0,0,0,0,0,0,0,0,0,0,0,0,0,0,0,0,0,0,0,0,0,0,0,0,0,0,0,0,0,0,0,0,0,0,0,0,0,0,0,0,0,0,0,0,0,0,0,0,0,-5.6199,-5.6199,0,-5.617,-5.617,-5.6169,-5.6048,-5.6045,-5.6042,-5.6039,-5.6011,-5.6013,-5.6015,0,0,0,0,0,0,0,0,0,0,0,0,0,-5.6154,-5.6156,-5.6199,-5.6199,-5.6199,-5.617,-5.617,-5.6169,-5.6048,-5.6045,-5.6041,-5.6038,-5.6011,-5.6013,-5.6015,0,0,0,0,0,0,0,0,0,0,0,0,0,-5.6154,-5.6156,-5.62,-5.6135,-5.6129,-5.617,-5.617,-5.6169,-5.6049,-5.6045,-5.604,-5.6036,-5.601,-5.6013,-5.6016,-5.6118,0,0,-5.6024,-5.6026,0,0,0,0,0,0,0,0,-5.6155,-5.6156,-5.6145,-5.6139,-5.6133,-5.6108,-5.6143,-5.6152,-5.605,-5.6079,-5.6039,-5.6034,-5.6047,-5.6047,-5.6051,-5.6117,-5.6116,-5.6025,-5.6026,-5.6028,-5.6028,0,0,0,0,0,0,0,-5.6155,-5.6157,-5.6188,-5.6145,-5.6137,-5.6108,-5.6104,-5.6145,-5.6087,-5.6076,-5.6067,-5.6066,-5.6043,-5.6048,-5.6049,-5.6115,-5.6025,-5.6027,-5.6029,-5.603,-5.6267,-5.6271,0,0,0,0,0,0,-5.6163,-5.6158,-5.6189,-5.6187,-5.6133,-5.6113,-5.6107,-5.612,-5.6087,-5.6077,-5.6069,-5.606,-5.6045,-5.6046,-5.6048,-5.6167,-5.6028,-5.603,-5.6032,-5.6262,-5.6268,-5.6273,0,0,0,0,0,0,-5.6163,-5.6167,-5.619,-5.617,-5.617,-5.6118,-5.6133,-5.6122,-5.6127,-5.6081,-5.6071,-5.6085,-5.6042,-5.6044,-5.6102,-5.6164,-5.6031,-5.6034,-5.6257,-5.6264,-5.627,-5.6406,0,0,0,0,0,0,-5.6162,-5.6168,-5.6205,-5.6172,-5.6172,-5.6244,-5.6137,-5.6124,-5.6132,-5.6119,-5.6093,-5.6084,-5.6039,-5.6098,-5.6105,-5.6166,-5.6036,-5.6251,-5.626,-5.6268,-5.6395,-5.6416,-5.6434,0,0,0,0,0,-5.6161,-5.6244,-5.6208,-5.6212,-5.6217,-5.6248,-5.6248,-5.6193,-5.6137,-5.6175,-5.6146,-5.6085,-5.6156,-5.6105,-5.6111,-5.6174,-5.6247,-5.6257,-5.6267,-5.6387,-5.6412,-5.6434,0,0,0,0,0,0,-5.6287,-5.6239,-5.6197,-5.6272,-5.6265,-5.6227,-5.6273,-5.6222,-5.6231,-5.6219,-5.6151,-5.6146,-5.6215,-5.62,-5.6144,-5.6273,-5.6191,-5.6204,-5.628,-5.6304,-5.6323,-5.6325,-5.6039,0,0,0,0,0,-5.6323,-5.6351,-5.6308,-5.6378,-5.6376,-5.6326,-5.6337,-5.6296,-5.6286,-5.6282,-5.6257,-5.6251,-5.6272,-5.6287,-5.6303,-5.6393,-5.6386,-5.6439,-5.6459,-5.6475,-5.6486,-5.6535,-5.6558,-5.6307,-5.6306,-5.6306,0,0,-5.6399,-5.6376,-5.6397,-5.6403,-5.6392,-5.6424,-5.6324,-5.6361,-5.6384,-5.6288,-5.6341,-5.6324,-5.6312,-5.6387,-5.6419,-5.6377,-5.6554,-5.6488,-5.6501,-5.6504,-5.6548,-5.6572,-5.6593,-5.6313,-5.6312,-5.6311,0,0,-5.6552,-5.6537,-5.6595,-5.6587,-5.6573,-5.6539,-5.6553,-5.6524,-5.6508,-5.6561,-5.649,-5.6517,-5.6554,-5.6549,-5.6552,-5.6708,-5.6653,-5.6715,-5.6817,-5.6865,-5.6885,-5.6902,-5.6959,-5.698,-5.6726,-5.6727,-5.6727,0,-5.6648,-5.6692,-5.6632,-5.6674,-5.668,-5.6594,-5.6653,-5.6648,-5.6641,-5.6647,-5.66,-5.6646,-5.6632,-5.6706,-5.6745,-5.6749,-5.6764,-5.6718,-5.6886,-5.6903,-5.6918,-5.6972,-5.6994,-5.6735,-5.6734,-5.6733,-5.6732,0,-5.6811,-5.6843,-5.6892,-5.6887,-5.6898,-5.6949,-5.6898,-5.6916,-5.6875,-5.6847,-5.6903,-5.6884,-5.6896,-5.691,-5.687,-5.698,-5.6954,-5.6898,-5.6815,-5.6951,-5.7001,-5.7021,-5.6746,-5.6743,-5.6741,-5.6739,0,0,-5.7042,-5.7005,-5.7024,-5.7022,-5.7001,-5.7025,-5.7073,-5.7085,-5.7103,-5.7101,-5.7141,-5.7175,-5.7124,-5.7127,-5.7086,-5.7128,-5.7255,-5.7066,-5.7065,-5.7104,-5.7377,-5.742,-5.7445,-5.7218,-5.7222,-5.7225,-5.7378,0,-5.719,-5.7269,-5.7217,-5.7305,-5.7335,-5.7256,-5.7298,-5.7291,-5.7267,-5.7289,-5.7262,-5.7289,-5.7218,-5.722,-5.7258,-5.7232,-5.7309,-5.722,-5.7256,-5.7258,-5.7262,-5.747,-5.7515,-5.7661,-5.7397,-5.74,-5.7403,0,-5.7372,-5.7379,-5.7471,-5.7446,-5.7457,-5.7495,-5.7503,-5.7526,-5.7517,-5.7496,-5.7502,-5.745,-5.7498,-5.7416,-5.7481,-5.7422,-5.7434,-5.7424,-5.7428,-5.743,-5.7339,-5.7479,-5.7706,-5.7728,-5.7432,-5.743,-5.7428,0,-5.7534,-5.7566,-5.7625,-5.7625,-5.7597,-5.7627,-5.7617,-5.7604,-5.7615,-5.7623,-5.763,-5.7643,-5.7651,-5.7663,-5.7618,-5.7562,-5.769,-5.7604,-5.7676,-5.7677,-5.7706,-5.7705,-5.794,-5.7713,-5.7713,-5.7713,-5.7712,0,-5.7704,-5.7764,-5.7697,-5.7734,-5.7799,-5.774,-5.7806,-5.7788,-5.7777,-5.781,-5.7742,-5.7775,-5.7712,-5.7739,-5.7704,-5.7765,-5.7769,-5.7755,-5.7745,-5.7761,-5.7763,-5.7768,-5.7758,-5.7718,-5.7717,-5.7716,-5.7715,0,-5.7895,-5.7853,-5.7912,-5.7882,-5.7876,-5.7925,-5.79,-5.7933,-5.7905,-5.7948,-5.7955,-5.7911,-5.7939,-5.7895,-5.7918,-5.7895,-5.7979,-5.7954,-5.7983,-5.7975,-5.805,-5.8044,-5.8297,-5.8328,-5.8081,-5.8084,-5.8086,0,-5.8007,-5.8051,-5.8026,-5.8043,-5.8037,-5.8065,-5.8077,-5.8022,-5.8037,-5.8032,-5.8067,-5.8089,-5.8104,-5.8154,-5.8125,-5.8143,-5.8118,-5.8205,-5.812,-5.8136,-5.8121,-5.8119,-5.8124,-5.8223,-5.8226,-5.8228,-5.823,0,-5.8211,-5.8189,-5.8207,-5.8221,-5.8236,-5.8244,-5.8246,-5.8264,-5.8206,-5.8227,-5.8255,-5.8267,-5.8292,-5.8316,-5.8327,-5.8318,-5.8266,-5.8257,-5.8275,-5.8292,-5.8308,-5.8302,-5.8031,-5.8251,-5.8249,-5.8248,-5.8247,-5.8246,-5.8366,-5.8403,-5.8392,-5.8416,-5.8412,-5.8417,-5.8447,-5.8424,-5.8446,-5.8461,-5.8428,-5.8465,-5.8458,-5.8467,-5.8464,-5.8494,-5.8455,-5.8481,-5.8487,-5.8495,-5.8507,-5.8303,-5.8495,-5.8495,-5.8494,-5.8493,-5.8493,0,-5.8568,-5.8558,-5.858,-5.8587,-5.8607,-5.8555,-5.8556,-5.8576,-5.861,-5.8607,-5.8624,-5.8658,-5.8681,-5.8655,-5.8675,-5.8703,-5.868,-5.871,-5.8708,-5.8707,-5.8539,-5.8523,-5.8729,-5.8729,-5.8729,-5.8729,-5.8729,-5.8729,-5.8675,-5.8735,-5.8712,-5.8769,-5.8758,-5.8794,-5.8799,-5.8804,-5.8802,-5.8843,-5.8862,-5.8845,-5.8833,-5.8852,-5.8872,-5.8864,-5.8875,-5.8914,-5.8898,-5.8742,-5.8719,-5.8697,-5.8681,-5.8917,-5.8917,-5.9063,-5.9064,-5.9065]},{"header":{"parameterUnit":"m.s-1","parameterCategory":1,"la1":30.2991,"la2":30.254,"lo1":-89.0895,"lo2":-89.0444,"dy":0.0017,"dx":0.0017,"nx":28,"ny":28,"refTime":"2023-09-30T09:00:00:Z","depth":0,"parameterNumber":3,"parameterNumberName":"V-component_of_WINDS"},"data":[0,0,0,0,0,0,0,0,0,0,0,0,0,0,0,0,0,0,0,0,0,0,0,0,0,0,0,0,0,0,0,0,0,0,0,0,0,0,0,0,0,0,0,0,0,0,0,0,0,0,0,0,0,0,0,0,0,0,-0.4135,-0.4135,0,-0.4118,-0.4118,-0.4118,-0.406,-0.4058,-0.4057,-0.4056,-0.4042,-0.4043,-0.4043,0,0,0,0,0,0,0,0,0,0,0,0,0,-0.4119,-0.412,-0.4135,-0.4135,-0.4134,-0.4118,-0.4118,-0.4118,-0.406,-0.4058,-0.4057,-0.4055,-0.4041,-0.4042,-0.4043,0,0,0,0,0,0,0,0,0,0,0,0,0,-0.4117,-0.412,-0.4135,-0.4104,-0.4101,-0.4118,-0.4118,-0.4118,-0.406,-0.4058,-0.4056,-0.4054,-0.4041,-0.4042,-0.4044,-0.4091,0,0,-0.4048,-0.4048,0,0,0,0,0,0,0,0,-0.4117,-0.4117,-0.4108,-0.4106,-0.4102,-0.4089,-0.4107,-0.4109,-0.4061,-0.4076,-0.4056,-0.4053,-0.4059,-0.4059,-0.406,-0.4091,-0.409,-0.4048,-0.4048,-0.4049,-0.4049,0,0,0,0,0,0,0,-0.4117,-0.4118,-0.4128,-0.4108,-0.4105,-0.4091,-0.4088,-0.4107,-0.4079,-0.4074,-0.407,-0.4069,-0.4057,-0.4059,-0.4059,-0.409,-0.4048,-0.4049,-0.405,-0.405,-0.4159,-0.4161,0,0,0,0,0,0,-0.4121,-0.4118,-0.4129,-0.4128,-0.4105,-0.4093,-0.409,-0.4095,-0.4078,-0.4074,-0.407,-0.4066,-0.4058,-0.4058,-0.4059,-0.4115,-0.4049,-0.405,-0.4051,-0.4157,-0.4159,-0.4162,0,0,0,0,0,0,-0.4121,-0.4123,-0.4129,-0.4122,-0.4122,-0.4095,-0.4102,-0.4096,-0.4098,-0.4075,-0.407,-0.4077,-0.4056,-0.4057,-0.4083,-0.4113,-0.4051,-0.4052,-0.4154,-0.4158,-0.4161,-0.4226,0,0,0,0,0,0,-0.4121,-0.4123,-0.4141,-0.4123,-0.4122,-0.4154,-0.4103,-0.4097,-0.41,-0.4094,-0.4081,-0.4077,-0.4055,-0.4082,-0.4085,-0.4114,-0.4053,-0.4152,-0.4156,-0.4159,-0.4221,-0.4231,-0.424,0,0,0,0,0,-0.4121,-0.416,-0.4142,-0.4143,-0.4143,-0.4156,-0.4156,-0.4129,-0.4102,-0.412,-0.4106,-0.4077,-0.4109,-0.4085,-0.4088,-0.4118,-0.415,-0.4155,-0.4159,-0.4217,-0.4229,-0.4239,0,0,0,0,0,0,-0.4184,-0.4157,-0.4137,-0.4171,-0.4166,-0.4146,-0.4168,-0.4143,-0.4146,-0.4141,-0.4108,-0.4105,-0.4137,-0.4129,-0.4104,-0.4163,-0.4124,-0.413,-0.4168,-0.4179,-0.4188,-0.419,-0.4054,0,0,0,0,0,-0.4202,-0.4213,-0.419,-0.4223,-0.4221,-0.4195,-0.4199,-0.4179,-0.4173,-0.4171,-0.4158,-0.4154,-0.4163,-0.417,-0.4177,-0.4219,-0.4216,-0.424,-0.425,-0.4257,-0.4264,-0.4286,-0.4298,-0.4177,-0.4177,-0.4177,0,0,-0.4239,-0.4226,-0.4236,-0.4235,-0.4229,-0.4243,-0.4194,-0.421,-0.4221,-0.4173,-0.4198,-0.4189,-0.4182,-0.4217,-0.4231,-0.4211,-0.4296,-0.4263,-0.427,-0.4272,-0.4293,-0.4304,-0.4314,-0.4181,-0.418,-0.4179,0,0,-0.4315,-0.4305,-0.4332,-0.4326,-0.4317,-0.4299,-0.4305,-0.4289,-0.428,-0.4304,-0.4269,-0.4281,-0.4297,-0.4294,-0.4294,-0.4367,-0.4342,-0.437,-0.442,-0.4442,-0.4452,-0.446,-0.4488,-0.4499,-0.4376,-0.4376,-0.4376,0,-0.4364,-0.4382,-0.435,-0.4369,-0.437,-0.4326,-0.4354,-0.435,-0.4344,-0.4346,-0.4323,-0.4342,-0.4334,-0.4368,-0.4386,-0.4387,-0.4395,-0.4373,-0.4453,-0.4461,-0.4468,-0.4495,-0.4505,-0.438,-0.4379,-0.4379,-0.4378,0,-0.4443,-0.4456,-0.4479,-0.4473,-0.4477,-0.45,-0.4472,-0.4479,-0.4458,-0.4443,-0.4468,-0.4456,-0.4461,-0.4466,-0.4446,-0.4498,-0.4486,-0.4458,-0.4419,-0.4484,-0.4508,-0.4518,-0.4385,-0.4384,-0.4382,-0.4382,0,0,-0.4562,-0.4536,-0.4545,-0.4542,-0.4527,-0.4538,-0.4559,-0.4562,-0.457,-0.4566,-0.4584,-0.4598,-0.4572,-0.4572,-0.4551,-0.457,-0.4631,-0.454,-0.4539,-0.456,-0.469,-0.4713,-0.4725,-0.4612,-0.4614,-0.4616,-0.4691,0,-0.4636,-0.467,-0.4641,-0.4682,-0.4694,-0.4651,-0.467,-0.4663,-0.4649,-0.4659,-0.4643,-0.4654,-0.4618,-0.4618,-0.4635,-0.462,-0.4657,-0.4614,-0.4632,-0.4633,-0.4638,-0.4738,-0.4762,-0.4834,-0.47,-0.4702,-0.4703,0,-0.4728,-0.4727,-0.4769,-0.4751,-0.4756,-0.4773,-0.4773,-0.4782,-0.4774,-0.4762,-0.4762,-0.4735,-0.4755,-0.4714,-0.4743,-0.4714,-0.4719,-0.4713,-0.4715,-0.4718,-0.4674,-0.4746,-0.4856,-0.4868,-0.4717,-0.4716,-0.4715,0,-0.4813,-0.4823,-0.4849,-0.4847,-0.4827,-0.484,-0.4832,-0.4822,-0.4825,-0.4826,-0.4828,-0.4831,-0.4833,-0.4837,-0.4811,-0.4783,-0.4844,-0.4801,-0.4837,-0.4838,-0.4854,-0.4854,-0.497,-0.4853,-0.4852,-0.4852,-0.4852,0,-0.4901,-0.4929,-0.4887,-0.4904,-0.4934,-0.4899,-0.493,-0.4918,-0.4909,-0.4923,-0.4885,-0.49,-0.4864,-0.4875,-0.4855,-0.4883,-0.4883,-0.4876,-0.4871,-0.4881,-0.4882,-0.4886,-0.4882,-0.4855,-0.4854,-0.4854,-0.4853,0,-0.5003,-0.4976,-0.5002,-0.498,-0.4975,-0.4998,-0.498,-0.4995,-0.4976,-0.4995,-0.4997,-0.497,-0.4981,-0.4955,-0.4962,-0.4948,-0.4989,-0.4975,-0.4992,-0.4989,-0.5028,-0.5026,-0.5152,-0.5168,-0.5038,-0.5039,-0.504,0,-0.5063,-0.5083,-0.5062,-0.5068,-0.5062,-0.5073,-0.5076,-0.5042,-0.5047,-0.5039,-0.5055,-0.5062,-0.5067,-0.5086,-0.5067,-0.5073,-0.506,-0.5104,-0.5061,-0.5071,-0.5064,-0.5064,-0.5067,-0.5114,-0.5115,-0.5117,-0.5118,0,-0.5172,-0.5157,-0.5162,-0.5163,-0.5168,-0.5167,-0.5164,-0.5171,-0.5135,-0.5143,-0.5153,-0.5156,-0.5162,-0.5171,-0.5172,-0.5164,-0.5137,-0.5131,-0.514,-0.5152,-0.5163,-0.516,-0.502,-0.5129,-0.5128,-0.5127,-0.5126,-0.5126,-0.5256,-0.5272,-0.526,-0.5268,-0.5261,-0.5259,-0.5272,-0.5255,-0.5262,-0.5265,-0.5244,-0.5259,-0.5249,-0.5247,-0.5243,-0.5255,-0.5235,-0.5248,-0.5251,-0.5256,-0.5263,-0.5158,-0.5254,-0.5254,-0.5253,-0.5253,-0.5253,0,-0.5366,-0.5355,-0.5362,-0.5358,-0.5364,-0.5334,-0.5328,-0.5336,-0.5349,-0.5342,-0.5347,-0.5358,-0.5366,-0.5347,-0.5352,-0.5365,-0.5353,-0.5368,-0.5368,-0.5368,-0.5279,-0.5272,-0.5378,-0.5378,-0.5378,-0.5378,-0.5378,-0.5378,-0.5424,-0.545,-0.5434,-0.5457,-0.5446,-0.5459,-0.5459,-0.5457,-0.5451,-0.5466,-0.5472,-0.5458,-0.5447,-0.5451,-0.5457,-0.5451,-0.5456,-0.5477,-0.5467,-0.5386,-0.5374,-0.5362,-0.5355,-0.5477,-0.5477,-0.5554,-0.5555,-0.5556]}]]